www.pogodaiklimat.ru

Погода и климат >> Архив погоды >> Австралия >> Западная Австралия >> Марбл-бар


ПОГОДА в Марбл-баре

  • Прогноз погоды в Марбл-баре
  • Монитор погоды в Марбл-баре

АРХИВ ПОГОДЫ в Марбл-баре

Время (UTC), дата Ветер
(напр.,м/с)
 
Видим.   Явления Облачность Т
(С)
Тd
(С)
f
(%)
Тe
(С)
Тes
(С)
Комфортность P
(гПа)
Po
(гПа)
Тmin
(С)
Tmax
(С)
R
(мм)
R24
(мм)
S
(см)
19 11.02 СЗ 5 н/о н/о +28.5 +22.5 70 +37 +37 очень
душно
1008.0 987.8
21 11.02 СЗ 4 н/о н/о +28.3 +23.2 74 +38 +38 очень
душно
1008.7 988.5
22 11.02 СЗ 3 н/о н/о +28.3 +22.8 72 +38 +38 очень
душно
1008.9 988.7
00 12.02 З 3 н/о н/о +31.8 +23.3 61 +43 +43 опасность
перегрева
1010.0 989.8
01 12.02 З 4 н/о н/о +33.6 +22.7 53 +43 +43 опасность
перегрева
1010.0 989.8 +28.2
03 12.02 ЮЗ 3 н/о н/о +37.3 +20.6 38 +44 +44 опасность
перегрева
1008.9 988.7
04 12.02 ЮЗ 3 н/о н/о +39.3 +19.0 31 +44 +44 опасность
перегрева
1008.3 988.1
06 12.02 ЮЗ 2 н/о н/о +43.3 +8.9 13 +41 +41 опасность
перегрева
1006.1 986.0
07 12.02 З 3 н/о н/о +43.2 +7.7 12 +41 +41 опасность
перегрева
1005.2 985.1
09 12.02 СЗ 11 н/о н/о +34.0 +17.7 38 +38 +38 очень
душно
1005.5 985.4
10 12.02 СЗ 5 н/о н/о +35.2 +15.5 31 +37 +37 очень
душно
1006.6 986.5
12 12.02 З 6 н/о н/о +34.2 +20.6 45 +41 +41 опасность
перегрева
1007.2 987.0
13 12.02 З 3 н/о н/о +33.4 +20.5 47 +40 +40 очень
душно
1008.0 987.8 +44.3
15 12.02 СЗ 3 н/о н/о +31.6 +22.3 58 +41 +41 опасность
перегрева
1008.8 988.6
16 12.02 СЗ 3 н/о н/о +30.5 +22.9 64 +40 +40 очень
душно
1008.8 988.6
18 12.02 СЗ 2 н/о н/о +29.7 +22.9 67 +40 +40 очень
душно
1008.5 988.3
19 12.02 С 4 н/о н/о +28.9 +23.1 71 +39 +39 очень
душно
1008.7 988.5
21 12.02 СЗ 4 н/о н/о +28.2 +23.3 75 +38 +38 очень
душно
1008.9 988.7
22 12.02 СЗ 3 н/о н/о +28.0 +23.6 77 +38 +38 очень
душно
1009.7 989.5
00 13.02 СЗ 3 н/о н/о +30.5 +23.4 66 +41 +41 опасность
перегрева
1010.9 990.7
01 13.02 З 3 н/о н/о +32.5 +22.6 56 +42 +42 опасность
перегрева
1010.9 990.7 +28.0
03 13.02 ЮЗ 2 н/о н/о +36.7 +19.2 36 +42 +42 опасность
перегрева
1010.2 990.0
04 13.02 СЗ 2 н/о н/о +38.6 +17.4 29 +41 +41 опасность
перегрева
1009.4 989.2
06 13.02 З 3 н/о н/о +42.3 +14.6 20 +43 +43 опасность
перегрева
1007.2 987.0
07 13.02 СЗ 4 н/о н/о +42.0 +12.8 18 +42 +42 опасность
перегрева
1006.4 986.3
09 13.02 СЗ 7 н/о н/о +39.8 +18.9 30 +44 +44 опасность
перегрева
1005.8 985.7
10 13.02 СЗ 6 н/о н/о +38.1 +20.0 35 +44 +44 опасность
перегрева
1006.4 986.3
12 13.02 СЗ 2 н/о н/о +34.3 +20.7 45 +41 +41 опасность
перегрева
1009.5 989.3
13 13.02 В 3 н/о н/о +33.4 +17.5 39 +37 +37 очень
душно
1010.9 990.7 +43.7
15 13.02 СВ 4 н/о н/о +30.3 +23.2 66 +41 +41 опасность
перегрева
1011.5 991.3
16 13.02 С 4 н/о н/о +29.2 +23.4 71 +40 +40 очень
душно
1010.6 990.4
18 13.02 СЗ 3 н/о н/о +29.1 +23.1 70 +39 +39 очень
душно
1009.1 988.9
19 13.02 СЗ 4 н/о н/о +28.5 +23.4 74 +39 +39 очень
душно
1009.1 988.9
21 13.02 СЗ 2 н/о н/о +27.3 +22.9 77 +36 +36 очень
душно
1009.5 989.3
22 13.02 З 3 н/о н/о +27.1 +22.7 77 +36 +36 очень
душно
1009.6 989.4
00 14.02 СЗ 1 н/о н/о +29.0 +23.0 70 +39 +39 очень
душно
1011.3 991.1
01 14.02 З 2 н/о н/о +30.3 +22.7 64 +40 +40 очень
душно
1011.5 991.3 +27.1
03 14.02 В 2 н/о н/о +34.4 +22.1 49 +43 +43 опасность
перегрева
1010.7 990.5
04 14.02 Ю 2 н/о н/о +36.5 +21.9 43 +45 +45 опасность
перегрева
1009.9 989.7
06 14.02 В 2 н/о н/о +40.5 +19.5 30 +45 +45 опасность
перегрева
1008.0 987.8
07 14.02 СЗ 3 н/о н/о +40.8 +18.1 27 +44 +44 опасность
перегрева
1007.0 986.8
09 14.02 С 3 н/о н/о +40.1 +15.7 24 +42 +42 опасность
перегрева
1006.5 986.4
10 14.02 Ю 10 н/о н/о +32.8 +17.8 41 +37 +37 очень
душно
1008.1 987.9
12 14.02 С 3 н/о н/о +25.4 +21.1 77 +32 +32 очень
душно
1012.6 992.3
13 14.02 Ю 5 н/о туман местами н/о +27.0 +23.3 80 +36 +36 очень
душно
1011.1 990.9 +42.3
15 14.02 В 2 н/о н/о +28.3 +21.3 66 +36 +36 очень
душно
1010.3 990.1
16 14.02 СЗ 1 н/о {туман} н/о +28.4 +22.4 70 +37 +37 очень
душно
1010.5 990.3
18 14.02 Ю 2 н/о н/о +28.0 +23.2 75 +38 +38 очень
душно
1010.4 990.2
19 14.02 штиль 0 н/о {туман} н/о +27.7 +23.7 79 +38 +38 очень
душно
1010.2 990.0
21 14.02 СЗ 1 н/о н/о +27.6 +24.4 83 +39 +39 очень
душно
1010.6 990.4
22 14.02 С 1 н/о н/о +27.5 +23.9 81 +38 +38 очень
душно
1011.3 991.1
00 15.02 штиль 0 н/о н/о +31.9 +21.7 55 +40 +40 очень
душно
1012.1 991.8
01 15.02 З 2 н/о н/о +34.3 +20.3 44 +41 +41 опасность
перегрева
1012.2 991.9 +23.2
03 15.02 З 1 н/о н/о +37.6 +18.6 33 +42 +42 опасность
перегрева
1011.2 991.0
04 15.02 СВ 2 н/о н/о +39.9 +17.3 27 +43 +43 опасность
перегрева
1010.1 989.9
06 15.02 ЮВ 1 н/о н/о +42.0 +13.6 19 +42 +42 опасность
перегрева
1008.5 988.3
07 15.02 СВ 1 н/о н/о +42.1 +11.1 16 +41 +41 опасность
перегрева
1007.6 987.4
09 15.02 ЮЗ 7 н/о н/о +37.8 +18.3 32 +42 +42 опасность
перегрева
1007.8 987.6
10 15.02 В 1 н/о в посл. час дождь {туман} н/о +38.8 +17.0 28 +41 +41 опасность
перегрева
1007.6 987.4
12 15.02 штиль 0 н/о н/о +35.4 +25.6 57 +50 +50 опасность
перегрева
1008.9 988.7
13 15.02 З 3 н/о {туман} н/о +36.8 +19.7 37 +42 +42 опасность
перегрева
1009.8 989.6 +43.5
15 15.02 С 3 н/о н/о +33.1 +18.8 43 +38 +38 очень
душно
1010.2 990.0
16 15.02 СЗ 2 н/о н/о +31.8 +19.4 48 +38 +38 очень
душно
1009.3 989.1
18 15.02 штиль 0 н/о н/о +32.8 +18.2 42 +37 +37 очень
душно
1008.3 988.1
19 15.02 Ю 1 н/о н/о +31.6 +19.2 48 +37 +37 очень
душно
1008.2 988.0
21 15.02 Ю 1 н/о н/о +29.2 +19.8 57 +35 +35 очень
душно
1008.4 988.2
22 15.02 штиль 0 н/о н/о +27.9 +21.7 69 +36 +36 очень
душно
1008.8 988.6
00 16.02 ЮВ 2 н/о н/о +35.1 +18.6 38 +40 +40 очень
душно
1009.9 989.7
01 16.02 Ю 3 н/о н/о +37.2 +17.2 31 +40 +40 очень
душно
1010.3 990.1 +27.8
03 16.02 В 4 н/о н/о +41.7 +11.7 17 +41 +41 опасность
перегрева
1009.3 989.1
04 16.02 В 2 н/о н/о +42.5 +7.1 12 +40 +40 очень
жарко
1008.7 988.5
06 16.02 СВ 1 н/о н/о +43.8 +4.0 9 +41 +41 опасность
перегрева
1007.0 986.8
07 16.02 ЮВ 1 н/о н/о +44.3 +2.7 8 +41 +41 опасность
перегрева
1006.1 986.0
09 16.02 С 1 н/о н/о +43.6 +2.1 8 +40 +40 очень
жарко
1005.5 985.4
10 16.02 штиль 0 н/о н/о +43.2 +3.5 9 +40 +40 очень
жарко
1005.5 985.4
12 16.02 В 1 н/о н/о +36.2 +12.4 24 +36 +36 очень
жарко
1007.1 986.9
13 16.02 С 3 н/о н/о +37.6 +12.9 23 +38 +38 очень
жарко
1007.6 987.4 +44.9
15 16.02 З 3 н/о н/о +35.1 +16.4 33 +38 +38 очень
душно
1007.6 987.4
16 16.02 СЗ 2 н/о н/о +33.8 +17.5 38 +37 +37 очень
душно
1007.3 987.1
18 16.02 ЮЗ 2 н/о н/о +32.9 +17.1 39 +36 +36 очень
душно
1006.1 986.0
19 16.02 ЮЗ 2 н/о н/о +32.2 +18.4 44 +37 +37 очень
душно
1005.6 985.5
21 16.02 С 3 н/о н/о +28.8 +22.1 67 +37 +37 очень
душно
1007.3 987.1
22 16.02 СЗ 2 н/о н/о +28.8 +21.3 64 +36 +36 очень
душно
1008.3 988.1
00 17.02 С 5 н/о н/о +31.4 +22.4 59 +41 +41 опасность
перегрева
1008.8 988.6
01 17.02 СЗ 4 н/о н/о +34.2 +21.3 47 +42 +42 опасность
перегрева
1009.1 988.9 +27.9
03 17.02 СЗ 4 н/о н/о +37.8 +19.7 35 +43 +43 опасность
перегрева
1008.1 987.9
04 17.02 СЗ 3 н/о н/о +39.5 +17.6 28 +42 +42 опасность
перегрева
1007.1 986.9
06 17.02 СЗ 3 н/о н/о +42.8 +14.2 19 +43 +43 опасность
перегрева
1005.2 985.1
07 17.02 С 4 н/о н/о +42.4 +10.3 15 +41 +41 опасность
перегрева
1004.4 984.3
09 17.02 СЗ 4 н/о н/о +42.2 +13.8 19 +42 +42 опасность
перегрева
1003.4 983.3
10 17.02 С 6 н/о н/о +39.0 +18.3 30 +43 +43 опасность
перегрева
1004.3 984.2
12 17.02 С 5 н/о н/о +35.0 +19.8 41 +41 +41 опасность
перегрева
1006.2 986.1
13 17.02 СЗ 4 н/о н/о +33.7 +19.4 43 +39 +39 очень
душно
1006.6 986.5 +44.2
15 17.02 СЗ 3 н/о н/о +31.7 +18.3 45 +36 +36 очень
душно
1007.6 987.4
16 17.02 С 2 н/о н/о +30.7 +19.1 50 +36 +36 очень
душно
1007.5 987.3
18 17.02 С 3 н/о н/о +28.6 +22.8 71 +38 +38 очень
душно
1006.4 986.3
19 17.02 С 2 н/о н/о +28.3 +24.3 79 +40 +40 очень
душно
1006.6 986.5
21 17.02 С 3 н/о н/о +27.9 +24.9 84 +40 +40 очень
душно
1006.7 986.6
22 17.02 С 3 н/о н/о +27.8 +24.6 83 +39 +39 очень
душно
1007.2 987.0
00 18.02 С 2 н/о н/о +30.4 +24.5 71 +43 +43 опасность
перегрева
1008.0 987.8
01 18.02 С 3 н/о н/о +33.7 +23.7 56 +45 +45 опасность
перегрева
1008.1 987.9 +27.8
03 18.02 СЗ 3 н/о н/о +37.9 +20.7 37 +44 +44 опасность
перегрева
1007.4 987.2
04 18.02 СЗ 2 н/о н/о +39.5 +20.2 33 +45 +45 опасность
перегрева
1006.7 986.6
06 18.02 СЗ 4 н/о н/о +42.0 +14.4 20 +43 +43 опасность
перегрева
1004.9 984.8
07 18.02 СЗ 3 н/о н/о +43.6 +13.2 17 +43 +43 опасность
перегрева
1004.3 984.2
09 18.02 СЗ 7 н/о н/о +39.2 +19.5 32 +44 +44 опасность
перегрева
1003.7 983.6
10 18.02 С 6 н/о н/о +36.2 +13.6 26 +37 +37 очень
жарко
1004.1 984.0
12 18.02 В 6 н/о н/о +34.5 +13.3 28 +35 +35 очень
жарко
1008.1 987.9
13 18.02 С 6 н/о н/о +34.0 +20.7 46 +41 +41 опасность
перегрева
1008.4 988.2 +44.3
15 18.02 С 3 н/о н/о +31.1 +23.5 64 +42 +42 опасность
перегрева
1008.3 988.1
16 18.02 С 4 н/о н/о +30.1 +23.8 69 +41 +41 опасность
перегрева
1006.7 986.6
18 18.02 СЗ 2 н/о н/о +29.9 +21.8 62 +38 +38 очень
душно
1007.0 986.8
19 18.02 С 3 н/о н/о +29.2 +22.2 66 +38 +38 очень
душно
1007.2 987.0

 

Местоположение метеостанции Марбл-бар (Западная Австралия, Австралия): широта -21.18 долгота 119.75 высота над уровнем моря 183 м.

В архиве по умолчанию представлена погода в Марбл-баре за последнюю неделю. Архивные данные за месяц целиком и за предыдущие месяцы, начиная с января 2011 года, Вы можете получить, выбрав интересующий диапазон дат из раскрывающегося списка и нажав кнопку "Ввод!".


*Определитесь, кто Вы:
робот инопланетянин человек

Внимание! Время в таблицах - всемирное. Для получения местного времени необходимо прибавить поправку, которая равна 8 ч.

Смотрите также архив погоды в соседних городах и на ближайших метеорологических станциях:

Погода в Порт-Хедленде (Западная Австралия, Австралия) (148 км)
Погода в Мандоре (Западная Австралия, Австралия) (198 км)
Погода в Ньюмане (Западная Австралия, Австралия) (248 км)
Погода в Телфере (Западная Австралия, Австралия) (261 км)
Погода в Роборне (Западная Австралия, Австралия) (274 км)
Погода в Параберду (Западная Австралия, Австралия) (302 км)
Погода в Каррате (Западная Австралия, Австралия) (314 км)
Погода в Марди (Западная Австралия, Австралия) (392 км)
Погода в Роули Шоалс (Западная Австралия, Австралия) (415 км)
Погода на Острове Варанас (Западная Австралия, Австралия) (438 км)

Пояснения к столбцам:

Ветер - указаны скорость ветра в м/с - средняя за 10 мин, порывы в срок и между сроками (в фигурных скобках) и направление, откуда дует ветер: С - северный, СВ - северо-восточный, В - восточный, ЮВ - юго-восточный, Ю - южный, ЮЗ - юго-западный, З - западный, СЗ - северо-западный.
Видимость - горизонтальная дальность видимости в метрах или километрах. При видимости от 1 до 10 км при отсутствии осадков обычно наблюдается дымка, при ухудшении видимости до 1 км и менее - туман. В сухую погоду видимость может ухудшаться дымом, пылью или мглою.
Явления - указаны атмосферные явления, наблюдавшиеся в срок или в последний час перед сроком; фигурными скобками обозначены явления, наблюдавшиеся между сроками (за 1-3 часа до срока); квадратными скобками обозначены град или гололедные отложения с указанием их диаметра в мм.
Облачность - указаны через наклонную черту общая и нижняя облачность в баллах и высота нижней границы облаков в метрах; квадратными скобками обозначены формы облаков: Ci - перистые, Cs - перисто-слоистые, Cc - перисто-кучевые, Ac - высококучевые, As - высокослоистые, Sc - слоисто-кучевые, Ns - слоисто-дождевые, Cu - кучевые, Cb - кучево-дождевые. Подробнее классификацию облаков см. в Атласе облаков (PDF).
T - Температура воздуха - температура, измеренная на высоте 2 м над землей.
Td - Температура точки росы - температура, при понижении до которой содержащийся в воздухе водяной пар достигнет насыщения.
f - Относительная влажность воздуха - влажноcть воздуха, измеренная на высоте 2 м над землей.
Te - Эффективная температура - температура, которую ощущает одетый по сезону человек в тени. Характеристика душности погоды. При расчете учитывается влияние влажности воздуха и скорости ветра на теплоощущения человека.
Tes - Эффективная температура на солнце - температура, которую ощущает человек, с поправкой на солнечный нагрев. Характеристика знойности погоды. Зависит от высоты солнца над горизонтом, облачности и скорости ветра. Ночью, в пасмурную погоду, а также при ветре 12 м/с и более поправка равна нулю.
P - Атмосферное давление - приведенное к уровню моря атмосферное давление.
Po - Атмосферное давление - измеренное на уровне метеостанции атмосферное давление.
Tmin - Минимальная температура - минимум температуры воздуха на высоте 2 м над землей.
Tmax - Максимальная температура - максимум температуры воздуха на высоте 2 м над землей.
R - Количество осадков - Количество выпавших осадков за период времени, мм. При наведении курсора мыши на число - период времени, за который выпало указанное количество осадков.
R24 - Количество осадков - Количество выпавших осадков за 24 часа, мм.
S - Снежный покров - Высота снежного покрова, см. При наведении курсора мыши на число - состояние снежного покрова и степень покрытия местности в баллах.